Location: Gez
(43.0167°N, 0.1000°W)
Time: 13:18:11
(UTC+00:00)

SL-24 R/B - Pass Details

Date: 16 January 2026
Orbit: 679 x 1188 km, 98.2° (Epoch: 10 February)

Event Time Altitude Azimuth Distance (km) Brightness Sun altitude
Rises 05:21:56 0° 4° (N) 4,058 8.7 -22.7°
Reaches altitude 10° 05:24:52 10° 355° (N) 3,116 8.0 -22.2°
Enters shadow 05:30:03 30° 310° (NW) 2,009 6.7 -21.2°
